Regional Weather Roundup
Issued by NWS Cleveland, OH

Home | Current Version | Previous Version | Graphics & Text | Print | Product List | Glossary On
Versions: 1 2 3 4 5 6 7 8 9 10 11 12 13 14 15 16 17 18 19 20 21 22 23 24 25 26 27 28 29 30 31 32 33 34 35 36 37 38 39 40 41 42 43 44 45 46 47 48 49 50
000
ASUS41 KCLE 080900
RWRCLE
OHIO REGIONAL WEATHER ROUNDUP
NATIONAL WEATHER SERVICE WILMINGTON, OH
400 AM EST MON FEB 08 2016

NOTE: "FAIR" INDICATES FEW OR NO CLOUDS BELOW 12,000 FEET WITH NO
SIGNIFICANT WEATHER AND/OR OBSTRUCTIONS TO VISIBILITY.

OHZ001>008-015>018-024>027-034-035-043-044-081000-
   NORTHWEST OHIO

CITY           SKY/WX    TMP DP  RH WIND       PRES   REMARKS
DEFIANCE       MOCLDY    35  30  82 S3        29.66F
FINDLAY        CLOUDY    38  32  79 SW5       29.65F
TOLEDO EXPRESS FAIR      36  31  82 W7        29.65F
TOLEDO EXEC    CLOUDY    38  32  79 SW6       29.66F
LIMA           CLOUDY    37  32  82 CALM      29.65F
$$

OHZ009>014-019>023-028>033-038-089-081000-
   NORTHEAST OHIO

CITY           SKY/WX    TMP DP  RH WIND       PRES   REMARKS
CLE-HOPKINS    LGT RAIN  41  30  65 SW5       29.69F
CLE-LAKEFRONT  CLOUDY    43  30  60 SW8       29.66F
CUY CO. ARPT   NOT AVBL
LORAIN-ELYRIA  LGT RAIN  39  34  82 SW9       29.67F
ASHTABULA      CLOUDY    38  25  59 S7        29.69F
AKRON-CANTON   CLOUDY    37  23  56 S8        29.67F
WOOSTER        NOT AVBL
MANSFIELD      CLOUDY    37  35  92 S8        29.66F
YOUNGSTOWN     CLOUDY    38  23  55 S9        29.69F
$$

OHZ042-051>053-060>062-070>072-077>081-081000-
  SOUTHWEST OHIO

CITY           SKY/WX    TMP DP  RH WIND       PRES   REMARKS
CINC-COVINGTON LGT RAIN  39  34  82 W12       29.70F
CINC-LUNKEN    LGT RAIN  40  36  86 W5        29.72F
HAMILTON       LGT RAIN  41  32  70 W3        29.71F
DAYTON         NOT AVBL
WRIGHT-PAT AFB LGT RAIN  39  36  87 NW6       29.68F
DAYTON GENERAL LGT RAIN  39  33  79 NW3       29.67F
WILMINGTON     LGT RAIN  39  31  72 W7        29.67F
$$

OHZ036-037-039>041-045>050-054>059-063>069-073>076-082>088-081000-
  CENTRAL AND SOUTHEAST OHIO

CITY           SKY/WX    TMP DP  RH WIND       PRES   REMARKS
COLUMBUS       LGT RAIN  39  34  82 SE5       29.68F
OSU AIRPORT    LGT RAIN  40  35  83 S5        29.67F
BOLTON FIELD   NOT AVBL
RICKENBACK AFB NOT AVBL
NEWARK         LGT RAIN  40  33  76 SW3       29.68F
MARION         CLOUDY    38  33  82 S6        29.66F
LANCASTER      CLOUDY    40  33  76 S5        29.68F
ZANESVILLE     MOCLDY    39  22  50 S3        29.69F
NEW PHILLY     MOCLDY    35  26  69 E3        29.70F
$$



USA.gov is the U.S. government's official web portal to all federal, state and local government web resources and services.